Weather History for South Lake Tahoe, CA

Change the Weather History Date:

Tuesday, January 17, 2012

  Actual Average Record
Temperature  
Mean Temperature 25 °F 30 °F  
Max Temperature 40 °F 43 °F 61 °F (2011)
Min Temperature 9 °F 16 °F -6 °F (2001)
Degree Days  
Heating Degree Days 40 35  
Month to date heating degree days 519 602  
Since 1 July heating degree days 3319 3785  
Cooling Degree Days 0 0  
Month to date cooling degree days 0 0  
Year to date cooling degree days 0 0  
Moisture  
Dew Point -10 °F    
Average Humidity 33    
Maximum Humidity 63    
Minimum Humidity 2    
Precipitation  
Precipitation 0.00 in - 2.44 in (1950)
Month to date precipitation T  
Year to date precipitation T  
Sea Level Pressure  
Sea Level Pressure 30.19 in    
Wind  
Wind Speed 12 mph (South)    
Max Wind Speed 23 mph    
Max Gust Speed 30 mph    
Visibility 7 miles    
Events      
T = Trace of Precipitation, MM = Missing Value Source: NWS Daily Summary

Daily Weather History Graph

Daily Weather History Graph

Search for Another Location

Airport:

Trip Planner

Search our weather history database for the weather conditions in past years. The results will help you decide how hot, cold, wet, or windy it might be!

Date:

Astronomy

Jan. 17, 2012 Rise Set
Actual Time 7:16 AM PST 5:03 PM PST
Civil Twilight 6:47 AM PST 5:33 PM PST
Nautical Twilight 6:14 AM PST 6:05 PM PST
Astronomical Twilight 5:42 AM PST 6:37 PM PST
Moon 1:42 AM PST (1/17) 12:00 PM PST (1/17)
Length of Visible Light 10h 45m
Length of Day
9h 47m
Waning Crescent, 34% of the Moon is Illuminated
Jan 17
Waning Crescent
Jan 22
New
Jan 30
First Quarter
Feb 7
Full
Feb 14
Last Quarter

Hourly Weather History & Observations

Time (PST) Temp. Windchill Dew Point Humidity Pressure Visibility Wind Dir Wind Speed Gust Speed Precip Events Conditions
12:53 AM 10.9 °F - -0.0 °F 61% 30.19 in 10.0 mi Calm Calm - N/A   Clear
1:53 AM 16.0 °F 5.3 °F 3.0 °F 57% 30.17 in 10.0 mi SSW 8.1 mph - N/A   Clear
2:53 AM 21.9 °F 13.4 °F -6.0 °F 29% 30.14 in 10.0 mi SSW 6.9 mph - N/A   Clear
3:53 AM 24.1 °F 14.4 °F -14.1 °F 18% 30.14 in 10.0 mi SW 9.2 mph - N/A   Clear
4:53 AM 25.0 °F 15.5 °F -17.0 °F 15% 30.14 in 10.0 mi SSW 9.2 mph - N/A   Clear
5:53 AM 25.0 °F 14.8 °F -23.1 °F 11% 30.17 in 10.0 mi SSW 10.4 mph - N/A   Clear
6:53 AM 27.0 °F 18.0 °F -29.9 °F 7% 30.18 in 10.0 mi SSW 9.2 mph - N/A   Clear
7:53 AM 27.0 °F 16.1 °F -35.0 °F 6% 30.20 in 10.0 mi SSW 12.7 mph 21.9 mph N/A   Clear
8:53 AM 30.9 °F 19.4 °F -42.0 °F 4% 30.23 in 10.0 mi SSW 17.3 mph 24.2 mph N/A   Clear
9:53 AM 34.0 °F 23.4 °F -45.9 °F 4% 30.24 in 10.0 mi South 17.3 mph 26.5 mph N/A   Clear
10:53 AM 37.0 °F 26.2 °F -29.9 °F 5% 30.24 in 10.0 mi SSW 21.9 mph 28.8 mph N/A   Clear
11:53 AM 39.0 °F 30.6 °F -20.0 °F 7% 30.25 in 10.0 mi SSW 15.0 mph 24.2 mph N/A   Clear
12:53 PM 39.0 °F 31.4 °F -11.0 °F 12% 30.23 in 10.0 mi SSW 12.7 mph 21.9 mph N/A   Clear
1:53 PM 39.0 °F 30.6 °F -7.1 °F 14% 30.20 in 6.0 mi South 15.0 mph 21.9 mph N/A   Haze
2:18 PM 39.2 °F 31.6 °F -7.6 °F 14% 30.16 in 4.0 mi South 12.7 mph 20.7 mph N/A   Haze
2:36 PM 39.2 °F 33.0 °F -5.8 °F 15% 30.17 in 2.5 mi SSW 9.2 mph - N/A   Haze
2:49 PM 39.2 °F 31.6 °F -5.8 °F 15% 30.17 in 2.0 mi South 12.7 mph - N/A   Haze
2:53 PM 39.9 °F 32.1 °F -5.1 °F 15% 30.18 in 2.0 mi South 13.8 mph - N/A   Haze
3:21 PM 39.2 °F 31.6 °F -2.2 °F 17% 30.16 in 3.0 mi South 12.7 mph - N/A   Haze
3:31 PM 39.2 °F 31.6 °F -2.2 °F 17% 30.17 in 3.0 mi South 12.7 mph - N/A   Haze
3:46 PM 39.2 °F 32.5 °F -2.2 °F 17% 30.17 in 2.5 mi South 10.4 mph - N/A   Haze
3:53 PM 37.9 °F 30.5 °F -2.0 °F 18% 30.18 in 2.0 mi South 11.5 mph - N/A   Haze
4:37 PM 35.6 °F 28.0 °F 1.4 °F 24% 30.16 in 3.0 mi South 10.4 mph 17.3 mph N/A   Haze
4:53 PM 34.0 °F 25.0 °F 1.9 °F 26% 30.18 in 4.0 mi South 12.7 mph - N/A   Haze
5:13 PM 33.8 °F 25.3 °F 1.4 °F 25% 30.16 in 5.0 mi South 11.5 mph - N/A   Haze
5:53 PM 32.0 °F 27.5 °F 1.9 °F 28% 30.20 in 7.0 mi SSE 4.6 mph - N/A   Clear
6:53 PM 33.1 °F 23.4 °F 1.0 °F 26% 30.21 in 10.0 mi SSE 13.8 mph 19.6 mph N/A   Clear
7:53 PM 32.0 °F 23.6 °F 1.0 °F 27% 30.22 in 8.0 mi SSE 10.4 mph - N/A   Mostly Cloudy
8:53 PM 34.0 °F 26.0 °F -2.9 °F 21% 30.20 in 10.0 mi South 10.4 mph - N/A   Overcast
9:53 PM 34.0 °F 24.2 °F -6.0 °F 18% 30.20 in 10.0 mi South 15.0 mph 23.0 mph N/A   Mostly Cloudy
10:53 PM 35.1 °F 24.8 °F -7.1 °F 16% 30.20 in 10.0 mi South 17.3 mph 29.9 mph N/A   Partly Cloudy
11:53 PM 34.0 °F 24.2 °F -7.1 °F 17% 30.20 in 10.0 mi South 15.0 mph 26.5 mph N/A   Mostly Cloudy